Regional Weather Roundup
Issued by NWS

Home | Current Version | Previous Version | Text Only | Print | Product List | Glossary Off
Versions: 1 2 3 4 5 6 7 8 9 10 11 12 13 14 15 16 17 18 19 20 21 22 23 24 25 26 27 28 29 30 31 32 33 34 35 36 37 38 39 40 41 42 43 44 45 46 47 48 49 50

000
ASUS43 KTOP 062159
RWRKS

WEATHER ROUNDUP FOR KANSAS
NATIONAL WEATHER SERVICE GOODLAND KS
500 PM CDT MON JUL 06 2015

NOTE:  "FAIR" INDICATES FEW OR NO CLOUDS BELOW 12,000 FEET WITH NO
SIGNIFICANT WEATHER AND/OR OBSTRUCTIONS TO VISIBILITY.

KSZ001>006-013>018-027>032-041>047-062300-
NORTHWEST KANSAS

CITY           SKY/WX    TMP DP  RH WIND       PRES   REMARKS
GOODLAND       CLOUDY    74  58  57 N17       30.13F
HAYS           CLOUDY    73  61  64 N17G29    29.99S
HILL CITY      CLOUDY    78  60  53 N17G28    30.02F HAZE
RUSSELL        CLOUDY    75  66  73 N21G28    29.95S
$$

KSZ061>065-074>080-084>089-062300-
SOUTHWEST KANSAS

CITY           SKY/WX    TMP DP  RH WIND       PRES   REMARKS
DODGE CITY     CLOUDY    72  63  73 N22G32    29.98F
ELKHART          N/A     72  57  59 N16         N/A
GARDEN CITY    CLOUDY    74  63  68 N23G33    30.02F
GREAT BEND     CLOUDY    73  64  73 N28       29.95R
LIBERAL        CLOUDY    75  61  60 N24       30.03S
$$

KSZ066>073-081>083-090>101-062300-
SOUTHEAST KANSAS

CITY           SKY/WX    TMP DP  RH WIND       PRES   REMARKS
CHANUTE        MOSUNNY   87  73  62 S17       29.85R
COFFEYVILLE    MOSUNNY   88  75  65 S15G23    29.85R HX  97
HUTCHINSON     LGT RAIN  75  72  90 NE15G24   29.87R FOG
MEDICINE LODGE   N/A     90  72  55 N21G29    29.78F HX  97
NEWTON         CLOUDY    73  70  88 E5        29.88F THUNDER
PARSONS        MOSUNNY   87  75  67 S12G25    29.86R HX  96
WICHITA INTL   TSTM      78  74  87 N14G38    29.79R FOG
WICHITA JABRA  TSTM      73  73 100 NW22G32   29.84R VSB 1
WICHITA MCCONL TSTM      81  73  78 NE21      29.80R
WINFIELD       MOSUNNY   91  71  51 S23G31    29.81F HX  97
$$

KSZ007>012-019>026-033>040-048>060-102>105-062300-
NORTHEAST KANSAS

CITY           SKY/WX    TMP DP  RH WIND       PRES   REMARKS
CONCORDIA      CLOUDY    72  67  84 N15G22    29.94R
EMPORIA        TSTM      70  69  97 NW18G28   29.91R VSB 3/4
LAWRENCE       CLOUDY    83  76  79 W9        29.83R THUNDER
MANHATTAN      LGT RAIN  74  72  93 N8        29.87R
OLATHE IND     HAZE      80  74  81 S20G38    29.84R THUNDER VSB 1
OLATHE EXE     PTSUNNY   83  74  74 S13       29.83R THUNDER
SALINA         CLOUDY    76  71  85 N21G28    29.89S
TOPEKA BILLARD TSTM      72  71  97 W10       29.85R VSB 3/4
TOPEKA FORBES  TSTM      73  70  90 NW15G33   29.85R VSB 1
$$



USA.gov is the U.S. government's official web portal to all federal, state and local government web resources and services.